Location: ????????
(55.7667°N, 37.4833°E)
Time: 04:23:35
(UTC+00:00)

Cosmos 1975 - Pass Details

Date: 19 May 2025
Orbit: 487 x 506 km, 82.5° (Epoch: 19 June)

Event Time Altitude Azimuth Distance (km) Brightness Sun altitude
Rises 21:09:05 0° 339° (NNW) 2,579 7.8 -14.2°
Reaches altitude 10° 21:11:26 10° 327° (NNW) 1,690 6.3 -14.2°
Maximum altitude 21:14:30 25° 270° (W) 1,016 4.2 -14.2°
Enters shadow 21:16:33 16° 225° (SW) 1,352 4.4 -14.2°
